Regional Weather Roundup
Issued by NWS Cleveland, OH

Home | Current Version | Previous Version | Text Only | Print | Product List | Glossary On
Versions: 1 2 3 4 5 6 7 8 9 10 11 12 13 14 15 16 17 18 19 20 21 22 23 24 25 26 27 28 29 30 31 32 33 34 35 36 37 38 39 40 41 42 43 44 45 46 47 48 49 50
000
ASUS41 KCLE 222110
RWRCLE
OHIO REGIONAL WEATHER ROUNDUP
NATIONAL WEATHER SERVICE WILMINGTON, OH
500 PM EDT MON SEP 22 2014

NOTE: "FAIR" INDICATES FEW OR NO CLOUDS BELOW 12,000 FEET WITH NO
SIGNIFICANT WEATHER AND/OR OBSTRUCTIONS TO VISIBILITY.

OHZ001>008-015>018-024>027-034-035-043-044-222200-
   NORTHWEST OHIO

CITY           SKY/WX    TMP DP  RH WIND       PRES   REMARKS
DEFIANCE       SUNNY    N/A N/A N/A NW9       30.20F
FINDLAY        SUNNY     64  40  41 W8        30.19F
TOLEDO EXPRESS SUNNY     64  39  39 NW10      30.19F
TOLEDO METCALF SUNNY     64  41  42 NW8       30.20S
LIMA           SUNNY     63  41  44 NW8       30.21F
$$

OHZ009>014-019>023-028>033-038-089-222200-
   NORTHEAST OHIO

CITY           SKY/WX    TMP DP  RH WIND       PRES   REMARKS
CLE-HOPKINS    PTSUNNY   57  42  57 W9        30.23R
CLE-LAKEFRONT  PTSUNNY   55  43  63 W8        30.21R
CUY CO. ARPT   PTSUNNY   55  45  67 W14       30.22R
LORAIN-ELYRIA  SUNNY     59  43  55 W9        30.22S
ASHTABULA      CLOUDY    52  41  66 NW9       30.20S
AKRON-CANTON   PTSUNNY   58  41  53 NW10      30.20R
WOOSTER        MOSUNNY   57  42  57 N5        30.21S
MANSFIELD      SUNNY     60  39  45 NW8       30.20F
YOUNGSTOWN     CLOUDY    54  42  64 NW12      30.19R
$$

OHZ042-051>053-060>062-070>072-077>081-222200-
  SOUTHWEST OHIO

CITY           SKY/WX    TMP DP  RH WIND       PRES   REMARKS
CINC-COVINGTON MOSUNNY   65  40  39 N8        30.21S
CINC-LUNKEN    SUNNY     66  42  41 N10G17    30.22S
HAMILTON       SUNNY     66  42  41 N5        30.22F
DAYTON         MOSUNNY   65  39  38 N13       30.23S
WRIGHT-PAT AFB SUNNY     64  39  40 VRB7      30.22S
DAYTON GENERAL SUNNY     64  40  41 VRB6      30.21S
WILMINGTON     SUNNY     64  38  38 VRB6      30.21S
$$

OHZ036-037-039>041-045>050-054>059-063>069-073>076-082>088-222200-
  CENTRAL AND SOUTHEAST OHIO

CITY           SKY/WX    TMP DP  RH WIND       PRES   REMARKS
COLUMBUS       SUNNY     66  39  37 NW7       30.20S
OSU AIRPORT    SUNNY     62  39  42 NW12      30.21S
BOLTON FIELD   SUNNY     63  41  45 N7        30.21S
RICKENBACK AFB SUNNY     63  38  40 W7        30.20S
NEWARK         SUNNY     63  40  42 W7        30.20S
MARION         SUNNY     62  38  40 VRB3      30.20F
LANCASTER      SUNNY     63  39  41 MISG      30.21R
ZANESVILLE     SUNNY     61  40  45 NW6       30.20S
NEW PHILLY     MOSUNNY   59  42  53 W8        30.21S
$$



USA.gov is the U.S. government's official web portal to all federal, state and local government web resources and services.